• In Uzbekistan
  • List of Countries
  • For 7 days
  • Water Temperature
  • Satellite Maps
  • Weather Map
  • Weather Widgets
  • user-avatar
    Login

    Hourly Weather Satif

    Today, 22 February, Thursday

    Time Temperature Precipitation Wind Pressure Humidity
    00:00 +2°C° 0 mm 3 mps 660 mmHg 91%
    01:00 +1°C° 0.2 mm 3 mps 660 mmHg 90%
    02:00 +1°C° 0.2 mm 3 mps 660 mmHg 89%
    03:00 +1°C° 0.2 mm 3 mps 660 mmHg 88%
    04:00 0°C° 0.1 mm 3 mps 660 mmHg 87%
    05:00 0°C° 0.1 mm 3 mps 660 mmHg 86%
    06:00 0°C° 0.1 mm 3 mps 660 mmHg 85%
    07:00 +1°C° 0.1 mm 3 mps 660 mmHg 81%
    08:00 0°C° 0.1 mm 4 mps 661 mmHg 77%
    09:00 +1°C° 0.1 mm 4 mps 661 mmHg 74%
    10:00 +1°C° 0.1 mm 4 mps 661 mmHg 69%
    11:00 +3°C° 0.1 mm 4 mps 661 mmHg 65%
    12:00 +3°C° 0.1 mm 5 mps 662 mmHg 60%
    13:00 +3°C° 0.1 mm 5 mps 661 mmHg 59%
    14:00 +3°C° 0.1 mm 5 mps 661 mmHg 57%
    15:00 +3°C° 0.1 mm 5 mps 661 mmHg 56%
    16:00 +3°C° 0.1 mm 4 mps 661 mmHg 61%
    17:00 +1°C° 0.1 mm 4 mps 661 mmHg 67%
    18:00 +1°C° 0.1 mm 3 mps 661 mmHg 73%
    19:00 +1°C° 0 mm 2 mps 661 mmHg 76%
    20:00 +1°C° 0 mm 2 mps 662 mmHg 80%
    21:00 -1°C° 0 mm 2 mps 662 mmHg 84%
    22:00 -1°C° 0 mm 2 mps 662 mmHg 85%
    23:00 +1°C° 0 mm 1 mps 662 mmHg 86%

    Tomorrow, 23 February, Friday

    Time Temperature Precipitation Wind Pressure Humidity
    00:00 0°C° 0 mm 1 mps 662 mmHg 87%
    01:00 0°C° 0 mm 1 mps 661 mmHg 87%
    02:00 0°C° 0 mm 1 mps 661 mmHg 87%
    03:00 0°C° 0 mm 1 mps 661 mmHg 86%
    04:00 0°C° 0 mm 1 mps 661 mmHg 84%
    05:00 0°C° 0 mm 1 mps 661 mmHg 82%
    06:00 0°C° 0 mm 1 mps 661 mmHg 80%
    07:00 +1°C° 0 mm 1 mps 661 mmHg 73%
    08:00 +3°C° 0 mm 1 mps 662 mmHg 65%
    09:00 +4°C° 0 mm 1 mps 663 mmHg 58%
    10:00 +4°C° 0 mm 2 mps 663 mmHg 55%
    11:00 +5°C° 0 mm 2 mps 663 mmHg 53%
    12:00 +6°C° 0 mm 2 mps 663 mmHg 50%
    13:00 +5°C° 0.1 mm 3 mps 663 mmHg 50%
    14:00 +5°C° 0.1 mm 3 mps 663 mmHg 51%
    15:00 +5°C° 0.1 mm 3 mps 663 mmHg 52%
    16:00 +5°C° 0 mm 2 mps 663 mmHg 57%
    17:00 +4°C° 0 mm 2 mps 663 mmHg 63%
    18:00 +4°C° 0 mm 1 mps 663 mmHg 68%
    19:00 +4°C° 0 mm 1 mps 663 mmHg 70%
    20:00 +3°C° 0 mm 1 mps 663 mmHg 72%
    21:00 +2°C° 0 mm 1 mps 664 mmHg 75%
    22:00 +2°C° 0 mm 1 mps 663 mmHg 74%
    23:00 +2°C° 0 mm 1 mps 663 mmHg 73%

    Day after tomorrow, 24 February, Saturday

    Time Temperature Precipitation Wind Pressure Humidity
    00:00 +2°C° 0 mm 1 mps 663 mmHg 73%
    01:00 +2°C° 0 mm 1 mps 663 mmHg 71%
    02:00 +2°C° 0 mm 1 mps 663 mmHg 69%
    03:00 +2°C° 0 mm 1 mps 662 mmHg 67%
    04:00 +2°C° 0 mm 1 mps 662 mmHg 65%
    05:00 +2°C° 0 mm 1 mps 662 mmHg 64%
    06:00 +1°C° 0 mm 2 mps 662 mmHg 62%
    07:00 +3°C° 0 mm 2 mps 663 mmHg 57%
    08:00 +5°C° 0 mm 2 mps 663 mmHg 51%
    09:00 +5°C° 0 mm 3 mps 664 mmHg 46%
    10:00 +8°C° 0 mm 3 mps 664 mmHg 45%
    11:00 +8°C° 0 mm 4 mps 664 mmHg 43%
    12:00 +10°C° 0 mm 4 mps 664 mmHg 42%
    13:00 +10°C° 0 mm 4 mps 664 mmHg 44%
    14:00 +10°C° 0 mm 4 mps 663 mmHg 47%
    15:00 +8°C° 0 mm 4 mps 663 mmHg 49%
    16:00 +8°C° 0.1 mm 3 mps 663 mmHg 55%
    17:00 +7°C° 0.1 mm 2 mps 663 mmHg 62%
    18:00 +7°C° 0.1 mm 1 mps 663 mmHg 68%
    19:00 +7°C° 0.2 mm 1 mps 663 mmHg 71%
    20:00 +7°C° 0.2 mm 1 mps 664 mmHg 74%
    21:00 +6°C° 0.2 mm 1 mps 664 mmHg 78%
    22:00 +6°C° 0.1 mm 1 mps 664 mmHg 81%
    23:00 +4°C° 0.1 mm 2 mps 664 mmHg 84%

    25 February, Sunday

    Time Temperature Precipitation Wind Pressure Humidity
    00:00 +4°C° 0.1 mm 2 mps 664 mmHg 87%
    01:00 +3°C° 0 mm 2 mps 664 mmHg 89%
    02:00 +3°C° 0 mm 2 mps 664 mmHg 91%
    03:00 +2°C° 0 mm 2 mps 664 mmHg 94%
    04:00 +2°C° 0 mm 2 mps 664 mmHg 93%
    05:00 +2°C° 0 mm 2 mps 665 mmHg 93%
    06:00 +2°C° 0 mm 2 mps 665 mmHg 92%
    07:00 +3°C° 0 mm 2 mps 665 mmHg 86%
    08:00 +4°C° 0 mm 2 mps 666 mmHg 80%
    09:00 +4°C° 0 mm 2 mps 667 mmHg 75%
    10:00 +5°C° 0 mm 2 mps 667 mmHg 68%
    11:00 +6°C° 0 mm 2 mps 667 mmHg 62%
    12:00 +7°C° 0 mm 3 mps 667 mmHg 56%
    13:00 +7°C° 0 mm 3 mps 667 mmHg 54%
    14:00 +7°C° 0 mm 3 mps 667 mmHg 53%
    15:00 +8°C° 0 mm 3 mps 667 mmHg 51%
    16:00 +7°C° 0 mm 2 mps 667 mmHg 56%
    17:00 +6°C° 0 mm 2 mps 667 mmHg 62%
    18:00 +5°C° 0 mm 2 mps 667 mmHg 67%
    19:00 +5°C° 0 mm 1 mps 667 mmHg 70%
    20:00 +5°C° 0 mm 1 mps 667 mmHg 73%
    21:00 +4°C° 0 mm 1 mps 667 mmHg 77%
    22:00 +4°C° 0 mm 1 mps 667 mmHg 77%
    23:00 +3°C° 0 mm 1 mps 666 mmHg 77%

    26 February, Monday

    Time Temperature Precipitation Wind Pressure Humidity
    00:00 +3°C° 0 mm 1 mps 666 mmHg 78%
    01:00 +3°C° 0 mm 1 mps 666 mmHg 76%
    02:00 +3°C° 0 mm 1 mps 665 mmHg 74%
    03:00 +3°C° 0 mm 1 mps 665 mmHg 72%
    04:00 +2°C° 0 mm 2 mps 665 mmHg 71%
    05:00 +2°C° 0 mm 2 mps 665 mmHg 69%
    06:00 +2°C° 0 mm 2 mps 665 mmHg 68%
    07:00 +4°C° 0 mm 2 mps 665 mmHg 61%
    08:00 +5°C° 0 mm 3 mps 666 mmHg 55%
    09:00 +8°C° 0 mm 3 mps 666 mmHg 48%
    10:00 +10°C° 0 mm 4 mps 666 mmHg 45%
    11:00 +11°C° 0 mm 4 mps 666 mmHg 42%
    12:00 +12°C° 0 mm 5 mps 666 mmHg 39%
    13:00 +13°C° 0 mm 5 mps 665 mmHg 39%
    14:00 +13°C° 0 mm 5 mps 665 mmHg 39%
    15:00 +13°C° 0 mm 4 mps 664 mmHg 39%
    16:00 +11°C° 0 mm 4 mps 664 mmHg 45%
    17:00 +10°C° 0 mm 3 mps 663 mmHg 51%
    18:00 +8°C° 0 mm 2 mps 663 mmHg 57%
    19:00 +8°C° 0 mm 2 mps 663 mmHg 57%
    20:00 +7°C° 0 mm 2 mps 662 mmHg 57%
    21:00 +7°C° 0 mm 2 mps 662 mmHg 57%
    22:00 +7°C° 0.2 mm 2 mps 662 mmHg 58%
    23:00 +7°C° 0.2 mm 3 mps 662 mmHg 59%

    27 February, Tuesday

    Time Temperature Precipitation Wind Pressure Humidity
    00:00 +8°C° 0.2 mm 3 mps 662 mmHg 61%
    01:00 +7°C° 0.7 mm 3 mps 661 mmHg 68%
    02:00 +7°C° 0.7 mm 3 mps 661 mmHg 74%
    03:00 +6°C° 0.7 mm 2 mps 660 mmHg 81%
    04:00 +6°C° 0.4 mm 2 mps 660 mmHg 83%
    05:00 +6°C° 0.4 mm 2 mps 661 mmHg 85%
    06:00 +7°C° 0.4 mm 1 mps 661 mmHg 86%
    07:00 +7°C° 0 mm 2 mps 661 mmHg 83%
    08:00 +8°C° 0 mm 2 mps 662 mmHg 79%
    09:00 +9°C° 0 mm 3 mps 663 mmHg 75%
    10:00 +9°C° 0.1 mm 3 mps 663 mmHg 71%
    11:00 +10°C° 0.1 mm 3 mps 664 mmHg 66%
    12:00 +10°C° 0.1 mm 4 mps 664 mmHg 61%
    13:00 +10°C° 0.5 mm 4 mps 664 mmHg 65%
    14:00 +8°C° 0.5 mm 4 mps 664 mmHg 68%
    15:00 +8°C° 0.5 mm 4 mps 664 mmHg 71%
    16:00 +7°C° 0.2 mm 4 mps 665 mmHg 74%
    17:00 +8°C° 0.2 mm 3 mps 665 mmHg 77%
    18:00 +7°C° 0.2 mm 3 mps 665 mmHg 81%
    19:00 +5°C° 0 mm 3 mps 666 mmHg 83%
    20:00 +5°C° 0 mm 2 mps 666 mmHg 85%
    21:00 +5°C° 0 mm 2 mps 666 mmHg 87%
    22:00 +4°C° 0 mm 2 mps 667 mmHg 86%
    23:00 +4°C° 0 mm 2 mps 667 mmHg 86%
    Show more